Content
SEND FEEDBACK

Daily
Averages
Monthly
Summary
Canada

VANCOUVER, BRITISH COLUMBIA


Home > North America > Canada > British Columbia
Elevation: 2 meters     Latitude: 49 11N     Longitude: 123 10W

WEATHER
 
SELECT A DAY
Number of Records: 249,842;   Date Range: 5/15/97 - 9/17/14
 
SHARE

PRINT THIS DATA

[ ← Previous Day ]
WEATHER ALMANAC - 29 MARCH, 2014
[ Next Day → ]
[ °F ]   °C
Weather ElementAverageHighLow
Temperature9.2 °C11 °C (4:35 pm)8 °C (12:35 am)
Dewpoint6.3 °C8 °C (12:35 am)5 °C (5:15 am)
Humidity82.4 %100 % (12:35 am)71 % (11:35 am)
Barometer1004.7 hPa1007.5 hPa (11:35 pm)1002.7 hPa (4:35 am)
Wind Speed14.3 km/h25.9 km/h (7:15 am)
Wind Gust38.9 km/h (9:55 am)
Weather ElementAverage
Visibility15.3 km
Wind DirectionS (175.1 °)

Weather ElementTotal
Precipitation---
Heating Degree Days8.8 (Base 18.3)
Averaged from 71 records on 29 March, 2014
WEATHER CONDITIONS BREAKOUT
WIND DIRECTION BREAKOUT
WEATHER BY HOUR - 29 MARCH, 2014
[ °F ]   °C
Local TimeTemperatureDewpointHumidityBarometerVisibilityWind DirectionWind SpeedGust SpeedPrecipitationEventsConditions
12:35 AM8 °C8 °C100 %1004.4 hPa16.1 kmSouth (190°)11.1 km/hPartly Cloudy
12:55 AM9 °C8 °C93 %1004.4 hPa14.5 kmSouth (180°)7.4 km/hScattered Clouds
1:15 AM9 °C8 °C93 %1004.4 hPa16.1 kmSouth (180°)9.3 km/hPartly Cloudy
1:35 AM9 °C7 °C87 %1004.4 hPa16.1 kmSouth (180°)9.3 km/hPartly Cloudy
1:55 AM9 °C7 °C87 %1004.1 hPa16.1 kmSouth (180°)7.4 km/hClear
2:15 AM9 °C7 °C87 %1004.1 hPa16.1 kmSouth (180°)11.1 km/hPartly Cloudy
2:35 AM8 °C7 °C93 %1004.1 hPa16.1 kmSouth (190°)9.3 km/hPartly Cloudy
2:55 AM9 °C7 °C87 %1004.1 hPa16.1 kmSouth (190°)13 km/hPartly Cloudy
3:15 AM9 °C7 °C87 %1003.7 hPa16.1 kmSouth (170°)11.1 km/hPartly Cloudy
3:35 AM9 °C7 °C87 %1003.7 hPa14.5 kmSouth (180°)13 km/hClear
3:55 AM9 °C7 °C87 %1003.4 hPa16.1 kmSouth (180°)13 km/h31.5 km/hClear
4:15 AM9 °C7 °C87 %1003 hPa16.1 kmSouth (180°)16.7 km/h29.6 km/hClear
4:35 AM9 °C6 °C82 %1002.7 hPa16.1 kmSouth (170°)16.7 km/h33.3 km/hPartly Cloudy
4:55 AM9 °C6 °C82 %1003 hPa16.1 kmSouth (180°)20.4 km/h31.5 km/hPartly Cloudy
5:15 AM9 °C5 °C76 %1003 hPa16.1 kmSouth (180°)16.7 km/h27.8 km/hScattered Clouds
5:35 AM8 °C5 °C81 %1003 hPa16.1 kmSouth (180°)14.8 km/h27.8 km/hPartly Cloudy
5:55 AM8 °C5 °C81 %1003 hPa16.1 kmSouth (190°)16.7 km/hClear
6:15 AM9 °C6 °C82 %1003 hPa16.1 kmSouth (190°)22.2 km/h35.2 km/hPartly Cloudy
6:35 AM9 °C6 °C82 %1003 hPa16.1 kmSouth (180°)18.5 km/h27.8 km/hMostly Cloudy
6:55 AM9 °C6 °C82 %1002.7 hPa16.1 kmSouth (180°)16.7 km/h29.6 km/hScattered Clouds
7:15 AM9 °C5 °C76 %1003 hPa16.1 kmSouth (190°)25.9 km/h33.3 km/hScattered Clouds
7:35 AM9 °C6 °C82 %1003 hPa16.1 kmSouth (180°)16.7 km/h29.6 km/hMostly Cloudy
7:55 AM9 °C6 °C82 %1002.7 hPa14.5 kmSouth (180°)13 km/hMostly Cloudy
8:15 AM9 °C6 °C82 %1003 hPa14.5 kmSouth (180°)18.5 km/h27.8 km/hMostly Cloudy
8:35 AM9 °C5 °C76 %1003 hPa16.1 kmSouth (170°)18.5 km/h35.2 km/hMostly Cloudy
8:55 AM9 °C5 °C76 %1003.4 hPa16.1 kmSouth (180°)18.5 km/h31.5 km/hPartly Cloudy
9:15 AM9 °C6 °C82 %1003.7 hPa11.3 kmSouth (170°)14.8 km/hRainLight Rain
9:35 AM8 °C7 °C93 %1003.7 hPa4.8 kmSouth (170°)11.1 km/h27.8 km/hRainLight Rain
9:55 AM8 °C6 °C87 %1003.7 hPa12.9 kmSouth (180°)22.2 km/h38.9 km/hMostly Cloudy
10:15 AM9 °C5 °C76 %1004.1 hPa14.5 kmSouth (180°)18.5 km/h33.3 km/hScattered Clouds
10:35 AM9 °C6 °C82 %1004.1 hPa16.1 kmSouth (180°)20.4 km/h29.6 km/hClear
10:55 AM10 °C6 °C76 %1004.4 hPa16.1 kmSouth (180°)18.5 km/h35.2 km/hPartly Cloudy
11:15 AM10 °C6 °C76 %1004.7 hPa14.5 kmSouth (180°)22.2 km/h37 km/hClear
11:35 AM10 °C5 °C71 %1005.1 hPa16.1 kmSouth (180°)16.7 km/h37 km/hPartly Cloudy
11:55 AM10 °C6 °C76 %1005.1 hPa16.1 kmSouth (190°)22.2 km/h33.3 km/hPartly Cloudy
12:15 PM10 °C6 °C76 %1005.4 hPa16.1 kmSouth (180°)11.1 km/h29.6 km/hPartly Cloudy
12:35 PM9 °C6 °C82 %1005.4 hPa16.1 kmSouth (180°)18.5 km/h31.5 km/hPartly Cloudy
12:55 PM9 °C5 °C76 %1005.4 hPa14.5 kmSouth (180°)14.8 km/h31.5 km/hPartly Cloudy
1:15 PM10 °C6 °C76 %1005.4 hPa14.5 kmSouth (180°)16.7 km/h25.9 km/hClear
1:35 PM9 °C6 °C82 %1005.4 hPa16.1 kmSouth (180°)13 km/h31.5 km/hScattered Clouds
1:55 PM10 °C7 °C82 %1005.4 hPa16.1 kmSouth (180°)16.7 km/h31.5 km/hScattered Clouds
2:15 PM10 °C7 °C82 %1005.4 hPa16.1 kmSouth (180°)20.4 km/h37 km/hMostly Cloudy
2:35 PM10 °C6 °C76 %1005.4 hPa16.1 kmSouth (180°)22.2 km/h37 km/hScattered Clouds
2:55 PM10 °C6 °C76 %1005.4 hPa14.5 kmSouth (180°)20.4 km/h37 km/hPartly Cloudy
3:15 PM10 °C5 °C71 %1006.1 hPa16.1 kmSouth (190°)18.5 km/h33.3 km/hMostly Cloudy
3:35 PM9 °C5 °C76 %1006.1 hPa16.1 kmSouth (170°)14.8 km/h35.2 km/hMostly Cloudy
3:55 PM10 °C6 °C76 %1006.1 hPa16.1 kmSouth (180°)16.7 km/h25.9 km/hMostly Cloudy
4:15 PM10 °C6 °C76 %1006.1 hPa16.1 kmSouth (180°)13 km/h25.9 km/hMostly Cloudy
4:35 PM11 °C6 °C71 %1006.1 hPa16.1 kmSouth (190°)16.7 km/h27.8 km/hScattered Clouds
4:55 PM11 °C7 °C76 %1005.8 hPa16.1 kmSouth (180°)14.8 km/h27.8 km/hPartly Cloudy
5:15 PM11 °C7 °C76 %1005.8 hPa16.1 kmSouth (180°)14.8 km/h29.6 km/hClear
5:35 PM11 °C6 °C71 %1005.8 hPa16.1 kmSouth (190°)16.7 km/h33.3 km/hPartly Cloudy
5:55 PM11 °C6 °C71 %1005.8 hPa16.1 kmSouth (170°)9.3 km/hPartly Cloudy
6:15 PM10 °C6 °C76 %1005.8 hPa16.1 kmSouth (180°)9.3 km/hPartly Cloudy
6:35 PM10 °C6 °C76 %1005.8 hPa16.1 kmSouth (170°)9.3 km/hScattered Clouds
6:55 PM10 °C6 °C76 %1005.8 hPa16.1 kmSouth (170°)7.4 km/hPartly Cloudy
7:15 PM10 °C6 °C76 %1005.8 hPa16.1 kmSouth (180°)11.1 km/hPartly Cloudy
7:35 PM10 °C6 °C76 %1005.8 hPa16.1 kmSSW (200°)14.8 km/hPartly Cloudy
7:55 PM9 °C7 °C87 %1005.8 hPa8 kmSouth (180°)14.8 km/hRainLight Rain
8:15 PM9 °C7 °C87 %1006.1 hPa4.8 kmSouth (180°)7.4 km/hRainRain
8:35 PM8 °C7 °C93 %1005.8 hPa14.5 kmCalmMostly Cloudy
8:55 PM8 °C7 °C93 %1006.1 hPa16.1 kmCalmPartly Cloudy
9:15 PM8 °C7 °C93 %1006.1 hPa16.1 kmSouth (170°)9.3 km/hScattered Clouds
9:35 PM8 °C7 °C93 %1006.4 hPa16.1 kmSouth (170°)9.3 km/hMostly Cloudy
9:55 PM8 °C7 °C93 %1006.4 hPa16.1 kmSouth (170°)13 km/hScattered Clouds
10:15 PM8 °C6 °C87 %1006.4 hPa16.1 kmSouth (180°)11.1 km/h27.8 km/hPartly Cloudy
10:35 PM8 °C6 °C87 %1006.8 hPa16.1 kmSouth (170°)9.3 km/hPartly Cloudy
10:55 PM8 °C7 °C93 %1006.8 hPa12.9 kmSouth (170°)5.6 km/hRainLight Rain
11:15 PM8 °C7 °C93 %1007.1 hPa16.1 kmSouth (190°)14.8 km/hMostly Cloudy
11:35 PM8 °C7 °C93 %1007.5 hPa12.9 kmSouth (170°)9.3 km/hRainLight Rain
11:55 PM8 °C7 °C93 %1007.5 hPa16.1 kmSSW (210°)13 km/hOvercast
Hourly data recorded from CZBB, located 0 kilometers away from Vancouver, British Columbia







STORIES FROM OUR PARTNERS